FW3182 Weather Reports


Display with metric or nautical units.
time (UTC)temp
F
wind
direction
speed
MPH
gust
MPH
rain 1hr
in
rain 24hr
in
rain mn
in
humidity
%
barometer
mb
20260906232704 89 245 2.0 6.0 0.00 0.00 0.00 57 1009.6
20260906232204 89 167 2.0 6.0 0.00 0.00 0.00 57 1009.7
20260906231703 89 207 1.0 3.0 0.00 0.00 0.00 56 1009.7
20260906231204 89 199 1.0 3.0 0.00 0.00 0.00 55 1009.7
20260906230703 89 169 1.0 5.0 0.00 0.00 0.00 55 1009.6
20260906230204 90 209 4.0 8.0 0.00 0.00 0.00 54 1009.7
20260906224703 91 195 3.0 7.0 0.00 0.00 0.00 51 1009.6
20260906224203 92 208 2.0 7.0 0.00 0.00 0.00 51 1009.4
20260906223704 92 192 1.0 9.0 0.00 0.00 0.00 50 1009.3
20260906223203 92 238 2.0 7.0 0.00 0.00 0.00 50 1009.4
20260906222704 92 219 3.0 12.0 0.00 0.00 0.00 49 1009.6
20260906222204 93 249 5.0 9.0 0.00 0.00 0.00 48 1009.5
20260906221203 96 69 2.0 10.0 0.00 0.00 0.00 45 1009.3
20260906220704 96 71 1.0 7.0 0.00 0.00 0.00 44 1009.3
20260906220204 97 204 0.0 6.0 0.00 0.00 0.00 44 1009.0
20260906215203 98 78 2.0 3.0 0.00 0.00 0.00 39 1008.7
20260906214703 98 210 0.0 3.0 0.00 0.00 0.00 40 1008.8
20260906214204 98 68 1.0 6.0 0.00 0.00 0.00 40 1008.7
20260906213203 100 54 3.0 7.0 0.00 0.00 0.00 39 1008.8
20260906212203 101 98 2.0 10.0 0.00 0.00 0.00 36 1008.8
20260906211204 101 338 1.0 8.0 0.00 0.00 0.00 39 1008.6
20260906205703 100 53 3.0 10.0 0.00 0.00 0.00 40 1008.8
20260906204203 100 68 5.0 12.0 0.00 0.00 0.00 40 1008.9
20260906203703 100 334 2.0 5.0 0.00 0.00 0.00 40 1009.0
20260906203204 100 352 2.0 8.0 0.00 0.00 0.00 40 1009.0
20260906202203 100 86 0.0 1.0 0.00 0.00 0.00 39 1008.9
20260906201703 99 73 4.0 7.0 0.00 0.00 0.00 40 1008.9
20260906201204 100 50 3.0 9.0 0.00 0.00 0.00 40 1008.9
20260906200703 101 55 6.0 12.0 0.00 0.00 0.00 39 1008.9
20260906200203 102 72 4.0 7.0 0.00 0.00 0.00 38 1009.0
20260906195704 101 115 2.0 6.0 0.00 0.00 0.00 37 1009.1
20260906194703 101 68 3.0 7.0 0.00 0.00 0.00 38 1009.3
20260906194203 100 63 3.0 6.0 0.00 0.00 0.00 39 1009.5
20260906193204 100 27 1.0 5.0 0.00 0.00 0.00 40 1009.6
20260906192204 101 14 1.0 3.0 0.00 0.00 0.00 40 1009.7
20260906191704 100 292 2.0 5.0 0.00 0.00 0.00 40 1009.8
20260906191204 100 44 3.0 6.0 0.00 0.00 0.00 38 1009.9
20260906190704 101 78 3.0 5.0 0.00 0.00 0.00 38 1010.0
20260906190204 100 303 1.0 6.0 0.00 0.00 0.00 40 1010.1
20260906185703 100 54 3.0 10.0 0.00 0.00 0.00 38 1010.0
20260906185203 101 0 3.0 9.0 0.00 0.00 0.00 39 1010.0
20260906184704 101 58 0.0 3.0 0.00 0.00 0.00 40 1010.0
20260906184204 100 337 3.0 8.0 0.00 0.00 0.00 40 1010.0
20260906183704 100 60 3.0 6.0 0.00 0.00 0.00 40 1010.1
20260906183204 100 40 3.0 6.0 0.00 0.00 0.00 41 1010.1
20260906182704 99 15 1.0 3.0 0.00 0.00 0.00 42 1010.1
20260906182203 98 302 2.0 7.0 0.00 0.00 0.00 44 1010.3
20260906181703 97 16 2.0 6.0 0.00 0.00 0.00 44 1010.5
20260906181204 97 99 2.0 5.0 0.00 0.00 0.00 44 1010.5
20260906180703 98 91 2.0 7.0 0.00 0.00 0.00 42 1010.5
20260906175703 100 279 1.0 2.0 0.00 0.00 0.00 42 1010.7
20260906174704 101 95 3.0 8.0 0.00 0.00 0.00 42 1010.9
20260906174204 100 118 2.0 3.0 0.00 0.00 0.00 43 1011.0
20260906173703 99 17 1.0 5.0 0.00 0.00 0.00 43 1011.3
20260906173204 100 86 2.0 5.0 0.00 0.00 0.00 42 1011.4
20260906172704 100 49 1.0 3.0 0.00 0.00 0.00 41 1011.4
20260906172203 99 73 1.0 3.0 0.00 0.00 0.00 42 1011.6
20260906171703 99 59 3.0 7.0 0.00 0.00 0.00 42 1011.7
20260906171204 99 104 1.0 5.0 0.00 0.00 0.00 44 1011.7
20260906170704 100 35 1.0 7.0 0.00 0.00 0.00 44 1011.8
20260906165704 98 187 0.0 1.0 0.00 0.00 0.00 47 1012.0
20260906165204 96 180 0.0 3.0 0.00 0.00 0.00 47 1012.0
20260906164703 96 69 1.0 6.0 0.00 0.00 0.00 47 1012.0
20260906164204 97 28 2.0 6.0 0.00 0.00 0.00 47 1012.2
20260906163704 96 0 1.0 3.0 0.00 0.00 0.00 48 1012.2
20260906162704 96 124 0.0 1.0 0.00 0.00 0.00 49 1012.2
20260906161703 96 49 1.0 3.0 0.00 0.00 0.00 49 1012.3
20260906161203 96 212 1.0 3.0 0.00 0.00 0.00 50 1012.3
20260906160704 96 297 0.0 2.0 0.00 0.00 0.00 51 1012.3
20260906160204 95 304 0.0 2.0 0.00 0.00 0.00 51 1012.3
20260906155703 95 69 1.0 3.0 0.00 0.00 0.00 51 1012.3
20260906155204 95 319 0.0 0.0 0.00 0.00 0.00 51 1012.3
20260906154703 95 287 1.0 2.0 0.00 0.00 0.00 51 1012.3
20260906153704 93 201 0.0 2.0 0.00 0.00 0.00 53 1012.4
20260906153203 93 323 1.0 2.0 0.00 0.00 0.00 56 1012.3
20260906152704 93 50 1.0 3.0 0.00 0.00 0.00 55 1012.3
20260906152204 92 189 0.0 2.0 0.00 0.00 0.00 58 1012.3
20260906151703 91 200 0.0 2.0 0.00 0.00 0.00 59 1012.3
20260906151204 90 155 1.0 2.0 0.00 0.00 0.00 60 1012.3
20260906150204 89 202 2.0 3.0 0.00 0.00 0.00 61 1012.2
20260906145703 88 211 1.0 3.0 0.00 0.00 0.00 61 1012.2
20260906145204 88 190 1.0 3.0 0.00 0.00 0.00 61 1012.1
20260906144703 88 189 2.0 3.0 0.00 0.00 0.00 61 1012.2
20260906144203 88 193 1.0 3.0 0.00 0.00 0.00 62 1012.2
20260906143704 88 195 2.0 3.0 0.00 0.00 0.00 61 1012.2
20260906143203 89 199 0.0 2.0 0.00 0.00 0.00 60 1012.2
20260906142704 89 163 0.0 0.0 0.00 0.00 0.00 61 1012.2
20260906142204 88 56 0.0 0.0 0.00 0.00 0.00 62 1012.3
20260906141204 88 56 0.0 0.0 0.00 0.00 0.00 65 1012.3
20260906140704 87 56 0.0 0.0 0.00 0.00 0.00 66 1012.2
20260906140204 85 47 0.0 0.0 0.00 0.00 0.00 69 1012.2
20260906135703 84 47 0.0 0.0 0.00 0.00 0.00 71 1012.2
20260906135204 84 47 0.0 0.0 0.00 0.00 0.00 71 1012.2
20260906133704 83 99 0.0 0.0 0.00 0.00 0.00 72 1012.2
20260906133203 82 99 0.0 0.0 0.00 0.00 0.00 73 1012.1
20260906132704 81 99 0.0 0.0 0.00 0.00 0.00 73 1012.1
20260906132203 80 99 0.0 0.0 0.00 0.00 0.00 75 1012.1
20260906131703 80 99 0.0 0.0 0.00 0.00 0.00 77 1012.1
20260906131204 79 99 0.0 0.0 0.00 0.00 0.00 76 1012.1
20260906130203 77 99 0.0 0.0 0.00 0.00 0.00 79 1011.9
20260906125704 76 99 0.0 0.0 0.00 0.00 0.00 80 1011.7
20260906125204 75 99 0.0 0.0 0.00 0.00 0.00 82 1011.8
20260906124203 75 99 0.0 0.0 0.00 0.00 0.00 81 1011.8
20260906123704 74 99 0.0 0.0 0.00 0.00 0.00 82 1011.6
20260906123204 74 99 0.0 0.0 0.00 0.00 0.00 82 1011.6
20260906122203 74 99 0.0 0.0 0.00 0.00 0.00 81 1011.6
20260906121204 74 99 0.0 0.0 0.00 0.00 0.00 81 1011.5
20260906120203 74 99 0.0 0.0 0.00 0.00 0.00 81 1011.4
20260906115704 74 99 0.0 0.0 0.00 0.00 0.00 81 1011.3
20260906114703 75 204 0.0 0.0 0.00 0.00 0.00 80 1011.2
20260906114204 75 204 0.0 0.0 0.00 0.00 0.00 79 1011.1
20260906113704 75 204 0.0 0.0 0.00 0.00 0.00 79 1011.0
20260906113204 74 204 0.0 0.0 0.00 0.00 0.00 79 1011.0
20260906112703 74 204 0.0 0.0 0.00 0.00 0.00 80 1011.0
20260906112203 73 204 0.0 0.0 0.00 0.00 0.00 81 1011.0
20260906111704 73 204 0.0 0.0 0.00 0.00 0.00 82 1011.0
20260906111203 73 204 0.0 0.0 0.00 0.00 0.00 83 1011.0
20260906110204 73 204 0.0 0.0 0.00 0.00 0.00 82 1011.0
20260906105703 74 204 0.0 0.0 0.00 0.00 0.00 81 1011.0
20260906105203 74 204 0.0 0.0 0.00 0.00 0.00 81 1010.9
20260906104704 74 204 0.0 0.0 0.00 0.00 0.00 81 1010.8
20260906104204 74 204 0.0 0.0 0.00 0.00 0.00 80 1010.9
20260906103703 75 204 0.0 0.0 0.00 0.00 0.00 80 1010.8
20260906102704 75 232 0.0 0.0 0.00 0.00 0.00 79 1010.8
20260906102203 75 232 0.0 0.0 0.00 0.00 0.00 78 1010.7
20260906101704 75 232 0.0 0.0 0.00 0.00 0.00 78 1010.7
20260906100703 75 232 0.0 0.0 0.00 0.00 0.00 78 1010.7
20260906100203 75 232 0.0 0.0 0.00 0.00 0.00 78 1010.7
20260906095703 75 232 0.0 0.0 0.00 0.00 0.00 78 1010.7
20260906094704 74 232 0.0 0.0 0.00 0.00 0.00 80 1010.7
20260906094204 74 232 0.0 0.0 0.00 0.00 0.00 80 1010.7
20260906093704 74 232 0.0 0.0 0.00 0.00 0.00 80 1010.7
20260906093203 74 232 0.0 0.0 0.00 0.00 0.00 79 1010.7
20260906092704 75 232 0.0 0.0 0.00 0.00 0.00 79 1010.7
20260906092204 75 232 0.0 0.0 0.00 0.00 0.00 78 1010.7
20260906090704 76 232 0.0 0.0 0.00 0.00 0.00 77 1010.5
20260906090203 75 232 0.0 0.0 0.00 0.00 0.00 77 1010.5
20260906085703 75 232 0.0 0.0 0.00 0.00 0.00 77 1010.6
20260906085204 76 232 0.0 0.0 0.00 0.00 0.00 78 1010.6
20260906084704 76 232 0.0 0.0 0.00 0.00 0.00 76 1010.5
20260906083704 76 232 0.0 0.0 0.00 0.00 0.00 76 1010.5
20260906083203 76 232 0.0 0.0 0.00 0.00 0.00 76 1010.5
20260906082704 76 232 0.0 0.0 0.00 0.00 0.00 76 1010.6
20260906082204 77 232 0.0 0.0 0.00 0.00 0.00 77 1010.6
20260906081704 77 232 0.0 0.0 0.00 0.00 0.00 75 1010.5
20260906081203 77 232 0.0 0.0 0.00 0.00 0.00 76 1010.5
20260906080204 77 232 0.0 0.0 0.00 0.00 0.00 74 1010.5
20260906075703 77 232 0.0 0.0 0.00 0.00 0.00 73 1010.5
20260906075204 78 232 0.0 0.0 0.00 0.00 0.00 73 1010.5
20260906074203 78 232 0.0 0.0 0.00 0.00 0.00 72 1010.5
20260906073704 78 232 0.0 0.0 0.00 0.00 0.00 73 1010.5
20260906072703 78 232 0.0 0.0 0.00 0.00 0.00 72 1010.6
20260906072204 78 232 0.0 0.0 0.00 0.00 0.00 73 1010.6
20260906071703 78 232 0.0 0.0 0.00 0.00 0.00 72 1010.6
20260906071204 78 232 0.0 0.0 0.00 0.00 0.00 72 1010.5
20260906070703 78 232 0.0 0.0 0.00 0.00 0.00 71 1010.5
20260906070204 78 232 0.0 0.0 0.00 0.00 0.00 71 1010.5
20260906065704 78 232 0.0 0.0 0.00 0.00 0.00 71 1010.5
20260906065204 78 232 0.0 0.0 0.00 0.00 0.00 71 1010.6
20260906064703 78 232 0.0 0.0 0.00 0.00 0.00 71 1010.6
20260906064204 78 232 0.0 0.0 0.00 0.00 0.00 71 1010.6
20260906063703 78 232 0.0 0.0 0.00 0.00 0.00 71 1010.6
20260906063203 78 232 0.0 0.0 0.00 0.00 0.00 71 1010.7
20260906062704 78 232 0.0 0.0 0.00 0.00 0.00 72 1010.6
20260906062203 78 232 0.0 0.0 0.00 0.00 0.00 74 1010.7
20260906061704 78 232 0.0 0.0 0.00 0.00 0.00 73 1010.6
20260906060704 79 232 0.0 0.0 0.00 0.00 0.00 72 1010.6
20260906060204 79 232 0.0 0.0 0.00 0.00 0.00 71 1010.5
20260906055704 79 232 0.0 0.0 0.00 0.00 0.00 70 1010.6
20260906054703 79 232 0.0 0.0 0.00 0.00 0.00 70 1010.5
20260906054204 79 232 0.0 0.0 0.00 0.00 0.00 71 1010.7
20260906053704 79 232 0.0 0.0 0.00 0.00 0.00 70 1010.6
20260906053204 79 232 0.0 0.0 0.00 0.00 0.00 71 1010.5
20260906052703 79 232 0.0 0.0 0.00 0.00 0.00 71 1010.4
20260906052204 80 232 0.0 0.0 0.00 0.00 0.00 72 1010.5
20260906051703 79 232 0.0 0.0 0.00 0.00 0.00 71 1010.5
20260906051204 79 232 0.0 0.0 0.00 0.00 0.00 72 1010.5
20260906050704 80 232 0.0 0.0 0.00 0.00 0.00 71 1010.4
20260906050204 80 76 0.0 0.0 0.00 0.00 0.00 70 1010.4
20260906045703 81 130 0.0 0.0 0.00 0.00 0.00 71 1010.4
20260906045204 81 130 0.0 0.0 0.00 0.00 0.00 68 1010.4
20260906044704 81 130 0.0 0.0 0.00 0.00 0.00 67 1010.5
20260906044203 82 130 0.0 0.0 0.00 0.00 0.00 67 1010.4
20260906043704 81 60 0.0 0.0 0.00 0.00 0.00 66 1010.4
20260906043204 81 70 0.0 0.0 0.00 0.00 0.00 68 1010.5
20260906042704 81 75 0.0 0.0 0.00 0.00 0.00 68 1010.5
20260906041704 82 75 0.0 0.0 0.00 0.00 0.00 67 1010.3
20260906041204 82 75 0.0 0.0 0.00 0.00 0.00 66 1010.4
20260906040703 83 75 0.0 0.0 0.00 0.00 0.00 65 1010.4
20260906035703 83 75 0.0 0.0 0.00 0.00 0.00 64 1010.3
20260906035204 84 75 0.0 0.0 0.00 0.00 0.00 63 1010.3
20260906034703 84 75 0.0 0.0 0.00 0.00 0.00 62 1010.3
20260906034204 85 47 0.0 0.0 0.00 0.00 0.00 62 1010.3
20260906032704 85 46 0.0 0.0 0.00 0.00 0.00 61 1010.2
20260906032204 85 53 0.0 0.0 0.00 0.00 0.00 61 1010.3
20260906031703 85 64 0.0 0.0 0.00 0.00 0.00 61 1010.2
20260906031204 84 64 0.0 0.0 0.00 0.00 0.00 61 1010.1
20260906030704 85 64 0.0 0.0 0.00 0.00 0.00 61 1010.2
20260906030203 85 64 0.0 0.0 0.00 0.00 0.00 61 1010.1
20260906025704 86 64 0.0 0.0 0.00 0.00 0.00 59 1010.2
20260906025203 86 64 0.0 0.0 0.00 0.00 0.00 59 1010.0
20260906024704 86 64 0.0 1.0 0.00 0.00 0.00 58 1009.9
20260906024203 87 64 0.0 1.0 0.00 0.00 0.00 58 1009.9
20260906023704 87 64 0.0 2.0 0.00 0.00 0.00 58 1009.9
20260906023203 87 45 1.0 3.0 0.00 0.00 0.00 58 1009.8
20260906021703 87 59 1.0 3.0 0.00 0.00 0.00 60 1009.8
20260906021204 87 23 0.0 2.0 0.00 0.00 0.00 60 1009.6
20260906020703 87 23 0.0 0.0 0.00 0.00 0.00 59 1009.5
20260906020204 87 23 0.0 0.0 0.00 0.00 0.00 59 1009.5
20260906015703 88 23 0.0 3.0 0.00 0.00 0.00 58 1009.5
20260906015204 88 8 0.0 0.0 0.00 0.00 0.00 56 1009.4
20260906014703 89 55 0.0 3.0 0.00 0.00 0.00 55 1009.3
20260906014204 90 73 1.0 3.0 0.00 0.00 0.00 54 1009.3
20260906013204 90 68 2.0 3.0 0.00 0.00 0.00 52 1009.1
20260906012704 90 11 0.0 0.0 0.00 0.00 0.00 51 1009.0
20260906012204 90 11 0.0 0.0 0.00 0.00 0.00 51 1008.9
20260906011703 90 11 0.0 0.0 0.00 0.00 0.00 51 1008.9
20260906011204 90 11 0.0 0.0 0.00 0.00 0.00 51 1008.8
20260906005704 91 11 0.0 0.0 0.00 0.00 0.00 50 1008.7
20260906004704 91 11 0.0 0.0 0.00 0.00 0.00 49 1008.6
20260906003703 92 11 0.0 0.0 0.00 0.00 0.00 48 1008.7
20260906003203 93 11 0.0 0.0 0.00 0.00 0.00 48 1008.6
20260906002704 94 11 0.0 0.0 0.00 0.00 0.00 47 1008.6
20260906002203 95 11 0.0 0.0 0.00 0.00 0.00 46 1008.6
20260906001704 95 11 0.0 0.0 0.00 0.00 0.00 45 1008.5
20260906001204 97 11 0.0 0.0 0.00 0.00 0.00 44 1008.6
20260906000703 97 11 0.0 0.0 0.00 0.00 0.00 44 1008.6
20260906000204 98 11 0.0 0.0 0.00 0.00 0.00 42 1008.6
20260905235703 99 11 0.0 0.0 0.00 0.00 0.00 41 1008.6
20260905235204 100 11 0.0 1.0 0.00 0.00 0.00 40 1008.6
20260905234704 100 55 0.0 1.0 0.00 0.00 0.00 40 1008.6
20260905234203 101 46 0.0 2.0 0.00 0.00 0.00 40 1008.6
20260905233704 102 197 0.0 1.0 0.00 0.00 0.00 38 1008.6
20260905233204 102 238 0.0 1.0 0.00 0.00 0.00 39 1008.6